Regional Weather Roundup
Issued by NWS

Home | Current Version | Previous Version | Text Only | Print | Product List | Glossary On
Versions: 1 2 3 4 5 6 7 8 9 10 11 12 13 14 15 16 17 18 19 20 21 22 23 24 25 26 27 28 29 30 31 32 33 34 35 36 37 38 39 40 41 42 43 44 45 46 47 48 49 50
000
ASCA44 KEWX 291620
RWRMX

LATIN AMERICA AND CARIBBEAN REGIONAL WEATHER ROUNDUP
NATIONAL WEATHER SERVICE AUSTIN/SAN ANTONIO TX
1100 AM CDT SAT APR 29 2017

NOTE: "FAIR" INDICATED FEW OR NO CLOUDS BELOW 12,000 FEET WITH NO
SIGNIFICANT WEATHER AND/OR OBSTRUCTIONS TO VISIBILITY.

BAJA CALIFORNIA

CITY           SKY/WX    TMP DP  RH WIND       PRES   REMARKS
LORETO         MOSUNNY   75  64  69 NW12      29.83R
LA PAZ         MOSUNNY   68  52  56 SW3       29.90S
MEXICALI       SUNNY     72  18  13 NW9       30.01R
S.J. DEL CABO  SUNNY     77  61  57 W7        29.86R
TIJUANA        SUNNY     73   9   8 NE7       29.98R

NORTHWESTERN MEXICO

CITY           SKY/WX    TMP DP  RH WIND       PRES   REMARKS
CULIACAN         N/A    N/A N/A N/A MISG        N/A
DURANGO        MOSUNNY   68  14  12 SE9       30.08S
GUAYMAS        MOSUNNY   77  70  78 CALM      29.82R
HERMOSILLO     MOSUNNY   77  59  53 CALM      29.90R
CD. JUAREZ     CLOUDY    43  43 100 S21       29.81F WCI  34
LOS MOCHIS     PTSUNNY   73  63  68 SW14      29.86R
OBREGON        PTSUNNY   75  61  60 S10       29.84S

NORTHEASTERN MEXICO

CITY           SKY/WX    TMP DP  RH WIND       PRES   REMARKS
CHIHUAHUA      CLOUDY    72  34  25 SW12      29.84S
MATAMOROS      MOSUNNY   88  75  66 S17G29    29.58F HX  97
MONCLOVA       MOSUNNY   97  32  10 W12       29.60  HX  91
MONTERREY      MOSUNNY   91  57  31 E3        29.55S HX  90
NUEVO LAREDO   MOSUNNY   82  72  69 S12       29.55S
PIEDRAS NEGRAS PTSUNNY   81  70  69 SE8       29.58R
REYNOSA        SUNNY     88  70  55 SE12G23   29.54S HX  92
SALTILLO       SUNNY     88  48  25 SW13      29.89F
TORREON        MOSUNNY   84  32  15 S15       29.83R
CD. VICTORIA   SUNNY     97  55  24 S9        29.56F HX  95

WESTERN MEXICO

CITY           SKY/WX    TMP DP  RH WIND       PRES   REMARKS
AGUASCALIENTES SUNNY     66  25  20 S10       30.17F
COLIMA         MOSUNNY   75  54  46 CALM      30.03R
DEL BAJIO      SUNNY     73  27  17 CALM      30.21S
GUADALAJARA    SUNNY     70  25  18 SE5       30.13F
MANZANILLO     MOSUNNY   75  68  78 SE12      29.91R
MAZATLAN       MOSUNNY   79  63  57 SW6       29.89R
P. VALLARTA    SUNNY     79  63  57 CALM      29.89R
URUAPAN        PTSUNNY   72  46  40 CALM      30.15R
ZACATECAS      SUNNY     72  28  20 SW12G23   30.15S

CENTRAL MEXICO

CITY           SKY/WX    TMP DP  RH WIND       PRES   REMARKS
CUERNAVACA     MOSUNNY   81  46  30 S2        30.08R HAZE
MEXICO CITY    PTSUNNY   79  28  15 SW9       30.23S
MORELIA        MOSUNNY   79  37  22 SW13      30.17R
POZA RICA      PTSUNNY   88  70  55 S5        29.66S HX  92
PUEBLA         PTSUNNY   72  36  26 S24       30.25F
QUERETARO      PTSUNNY   77  32  19 NW15      30.19S
S. LUIS POTOSI SUNNY     72  14  11 S17       30.07F
TAMPICO        PTSUNNY   88  73  62 S9        29.60F HX  96
TOLUCA         PTSUNNY   68  34  28 NW6       30.36R FOG

SOUTHERN MEXICO

CITY           SKY/WX    TMP DP  RH WIND       PRES   REMARKS
ACAPULCO       MOSUNNY   84  72  65 SW6       29.92R
B. DE HUATULCO SUNNY     84  68  58 W8        29.94F
OAXACA         PTSUNNY   75  37  25 SW7       30.17F
P. ESCONDIDO   PTSUNNY   82  66  57 SW7       30.00S
VERACRUZ       PTSUNNY   84  64  51 SW7       29.65F
ZIHUATANEJO    PTSUNNY   82  70  65 SW7       29.92R

YUCATAN PENINSULA

CITY           SKY/WX    TMP DP  RH WIND       PRES   REMARKS
CAMPECHE       PTSUNNY   91  75  59 SE14G25   29.75S HX 102
CANCUN         PTSUNNY   86  77  74 SE26      29.94F HX  97
CHETUMAL       PTSUNNY   88  77  70 SE18      29.88F HX 100
CD. DEL CARMEN PTSUNNY   90  75  62 SE21      29.74F HX 100
COZUMEL        MOSUNNY   84  77  79 SE15      29.92S HX  94
MERIDA         PTSUNNY   91  72  52 SE32      29.82F HX  98
MINATITLAN     MOSUNNY   93  70  46 S21       29.70S HX  99
TAPACHULA      SUNNY     90  73  58 W9        29.86F HX  98
TUX. GUTIERREZ MOSUNNY   90  59  35 E9        29.89F
VILLAHERMOSA   PTSUNNY   90  75  62 CALM      29.76S HX 100

CENTRAL AMERICA

CITY           SKY/WX    TMP DP  RH WIND       PRES   REMARKS
BELIZE CITY    MOSUNNY   88  79  74 SE14      29.85F HX 102
MANAGUA        MOSUNNY   91  72  52 NE14      29.86S HX  98

CARIBBEAN

CITY           SKY/WX    TMP DP  RH WIND       PRES   REMARKS
ARUBA          PTSUNNY   90  77  66 E25       29.89F HX 102
CURACAO        MOSUNNY   88  73  62 E23       29.92F HX  96
KINGSTON       MOSUNNY   84  75  74 SE28      29.97S HX  92
NASSAU         PTSUNNY   86  72  62 E13G24    30.16S HX  92
SAN JUAN       PTSUNNY   84  73  70 E16G23    30.07F HX  91
SANTO DOMINGO  LGT RAIN  82  75  78 SE17G31   30.03R
ST. CROIX      LGT RAIN  79  75  89 E9        30.07
ST. KITTS      MOSUNNY   84  73  70 NE18      30.06S HX  91
ST. MAARTEN    MOSUNNY   84  70  61 E15       30.06F
ST. THOMAS     SUNNY     79  73  83 E13       30.07

$$





USA.gov is the U.S. government's official web portal to all federal, state and local government web resources and services.